Location: Beaver Brook Trail
(44.0290°N, 71.8137°W)
Time: 00:01:39
(UTC+00:00)

Altair - Pass Details

Date: 15 November 2024
Orbit: 1501 x 1683 km, 47.2° (Epoch: 03 December)

Event Time Altitude Azimuth Distance (km) Brightness Sun altitude
Rises 22:08:43 0° 292° (WNW) 4,640 10.9 -8.9°
Reaches altitude 10° 22:12:22 10° 280° (W) 3,663 10.6 -9.5°
Maximum altitude 22:19:24 25° 229° (SW) 2,681 9.6 -10.7°
Drops below altitude 10° 22:26:34 10° 179° (S) 3,727 9.7 -12.0°
Sets 22:30:21 0° 167° (SSE) 4,736 10.1 -12.6°
